Location: Christian Reformed Church
(43.0975°N, 93.8113°W)
Time: 20:04:51
(UTC+00:00)

Cosmos 1076 Rocket - Pass Details

Date: 13 December 2025
Orbit: 582 x 603 km, 82.5° (Epoch: 12 January)

Event Time Altitude Azimuth Distance (km) Brightness Sun altitude
Rises 12:42:36 0° 176° (S) 2,793 7.3 -9.9°
Reaches altitude 10° 12:44:48 10° 172° (S) 1,901 6.5 -9.6°
Maximum altitude 12:48:54 56° 95° (E) 701 4.2 -8.9°
Drops below altitude 10° 12:53:04 10° 17° (NNE) 1,927 6.0 -8.2°
Sets 12:55:18 0° 13° (NNE) 2,837 6.8 -7.8°
